Weather in Lake Louise

Canada     51°25′31″N   116°10′47″W
temp.,
°C
wind,
m/s
gust,
m/s
humid.,
%
clouds,
%
prec.,
mm/h
press.,
hPa
HPBL,
m
27 september, mon
mon2700:00+4wsw228995 0.0 100427
03:00+5ssw348693 0.0 100396
06:00+5sw2391100 1.7 1003280
09:00+5ssw3388100 0.4 1003706
12:00+6sw3490100 2.2 1002905
15:00+7wnw238283 4.1 1002531
18:00+8wsw3465100 5.3 10011190
21:00+4ssw118754 0.8 100233
28 september, tue
tue2800:00+4s129199 0.9 100156
03:00+3ssw1195100 0.1 100166
06:00+1wsw229869 0.8 100129
09:00+2ssw2398100 1.0 1001378
12:00+2wsw2297100 2.4 1004175
15:00+3sw3376100 1.2 1005868
18:00+3sw3371100 1.6 1007822
21:00−1wsw229230 0.1 101160
29 september, wed
wed2900:00−2sw229470 0.2 101457
03:00−2sw229568 0.0 101586
06:00−2sw239699 0.1 1016310
09:00−1sw3387100 0.3 1017653
12:000sw3474100 0.4 1017905
15:00+3sw346085 0.1 10151186
18:00+2sw346387 0.1 10151105
21:00−1sw2288100 0.0 101938
30 september, thu
thu3000:00−1sw2388100 0.0 101985
03:00−2sw349711 0.0 1019117
06:00−3sw349855 0.0 1019170
09:00−1sw348742 0.0 1018265
12:00+3sw3474100 0.0 1015603
15:00+1wsw2298100 0.8 1015120
18:000sw2299100 4.5 101792
21:000wsw22100100 1.4 1017111
1 october, fri
fri100:000sw2399100 2.1 1019145
03:00−1sw2295100 0.3 1021166
06:00−1sw229498 0.6 1022298
09:00−1w128598 0.1 1023367
12:00+1wsw127293 0.1 1023917
15:00+2wsw226567 0.1 10231072
18:00+2w226855 0.1 1023797
21:00−4nnw11915 0.0 103010